Weather in Novotyryshkino

Russia / Altai Krai     52°05′01″N   84°54′36″E
temp.,
°C
wind,
m/s
gust,
m/s
humid.,
%
clouds,
%
prec.,
mm/h
press.,
hPa
HPBL,
m
2 july, sat
sat201:00+15sw513543 0.0 1007436
04:00+12ssw335896 0.0 100855
07:00+13ssw236628 0.0 1009108
10:00+19w5939100 0.0 10081738
13:00+21w710335 0.0 10082430
16:00+20nw474930 0.0 10081256
19:00+20w254998 0.0 10071139
22:00+13s11835 0.4 100810
3 july, sun
sun301:00+11s339045 1.2 100941
04:00+9ssw338933 0.0 100836
07:00+12ssw228233 0.1 100855
10:00+18wnw245448 0.1 1008864
13:00+21w583948 0.1 10072613
16:00+22wnw583691 0.0 10072875
19:00+19wnw24505 0.0 1008727
22:00+13s22704 0.0 100925
4 july, mon
mon401:00+11s33773 0.1 100934
04:00+10s22805 0.0 100831
07:00+13s22705 0.0 100872
10:00+20nne11485 0.0 1007854
13:00+23nne343774 0.0 10062268
16:00+24ne3435100 0.0 10052285
19:00+22e3451100 0.0 1004737
22:00+15se33783 0.0 100343
5 july, tue
tue501:00+14sse327672 0.0 100229
04:00+13sse336898 0.0 100039
07:00+16s236297 0.0 100058
10:00+24se1240100 0.0 999532
13:00+28nne122899 0.0 9981684
16:00+21ssw4753100 0.3 1000350
19:00+21ese2359100 0.3 1000157
22:00+17sse3380100 0.1 100138
6 july, wed
wed601:00+14s478216 0.2 100199
04:00+16s476978 0.0 1002149
07:00+15s3680100 0.4 1003148
10:00+22wsw6134863 0.1 10042109
13:00+25wsw8123466 0.1 10042831
16:00+24w71140100 0.0 10042571
19:00+20ssw5959100 0.3 1005607
22:00+14s34937 1.1 100769